Orbital Elements at Epoch 2459000.5 (2020-May-31.0) TDB
Reference: JPL 26 (heliocentric ecliptic J2000)
Element | Value | Uncertainty (1-sigma) | Units |
e | .1539548710584226 | 3.0756e-08 | |
a | 2.271690265866932 | 9.1074e-09 | au |
q | 1.921952483900715 | 7.0378e-08 | au |
i | 6.001491278527888 | 4.3608e-06 | deg |
node | 53.66885049967547 | 3.4509e-05 | deg |
peri | 231.040155099314 | 3.7642e-05 | deg |
M | 233.3551512131656 | 1.611e-05 | deg |
tp | 2459440.453859117162 (2021-Aug-13.95385912) | 5.6892e-05 | TDB |
period | 1250.610591740416 3.42 | 7.5207e-06 2.059e-08 | d yr |
n | .2878593883480588 | 1.7311e-09 | deg/d |
Q | 2.62142804783315 | 1.0509e-08 | au |
|
| | Orbit Determination Parameters
Additional Information
|